| time (UTC) | temp F | wind direction | speed MPH | gust MPH | rain 1hr in | rain 24hr in | rain mn in | humidity % | barometer mb |
| 20260905165032 | 76 | 145 | 1.0 | 3.0 | 0.00 | 0.00 | 0.00 | 62 | 1010.9 |
| 20260905163536 | 76 | 67 | 2.0 | 5.0 | 0.00 | 0.00 | 0.00 | 61 | 1011.3 |
| 20260905162028 | 76 | 82 | 0.0 | 5.0 | 0.00 | 0.00 | 0.00 | 63 | 1011.2 |
| 20260905160536 | 76 | 271 | 3.0 | 6.0 | 0.00 | 0.00 | 0.00 | 61 | 1011.3 |
| 20260905155036 | 76 | 4 | 0.0 | 4.0 | 0.00 | 0.00 | 0.00 | 63 | 1011.2 |
| 20260905153526 | 77 | 119 | 2.0 | 4.0 | 0.00 | 0.00 | 0.00 | 61 | 1011.3 |
| 20260905152101 | 77 | 169 | 1.0 | 5.0 | 0.00 | 0.00 | 0.00 | 62 | 1011.1 |
| 20260905150547 | 76 | 189 | 2.0 | 6.0 | 0.00 | 0.00 | 0.00 | 64 | 1011.2 |
| 20260905145029 | 75 | 192 | 2.0 | 8.0 | 0.00 | 0.00 | 0.00 | 65 | 1011.2 |
| 20260905143537 | 75 | 224 | 1.0 | 4.0 | 0.00 | 0.00 | 0.00 | 68 | 1011.0 |
| 20260905142028 | 74 | 120 | 1.0 | 6.0 | 0.00 | 0.00 | 0.00 | 67 | 1011.1 |
| 20260905140607 | 74 | 209 | 1.0 | 3.0 | 0.00 | 0.00 | 0.00 | 70 | 1011.1 |
| 20260905135030 | 73 | 138 | 1.0 | 4.0 | 0.00 | 0.00 | 0.00 | 71 | 1011.1 |
| 20260905133544 | 73 | 106 | 0.0 | 3.0 | 0.00 | 0.00 | 0.00 | 75 | 1011.1 |
| 20260905132034 | 73 | 131 | 0.0 | 3.0 | 0.00 | 0.00 | 0.00 | 76 | 1011.1 |
| 20260905130542 | 72 | 97 | 1.0 | 2.0 | 0.00 | 0.00 | 0.00 | 78 | 1011.1 |
| 20260905125100 | 69 | 344 | 0.0 | 2.0 | 0.00 | 0.00 | 0.00 | 83 | 1011.3 |
| 20260905123547 | 66 | 134 | 0.0 | 1.0 | 0.00 | 0.00 | 0.00 | 88 | 1011.3 |
| 20260905122037 | 65 | 125 | 0.0 | 1.0 | 0.00 | 0.00 | 0.00 | 92 | 1011.6 |
| 20260905120546 | 64 | 131 | 0.0 | 1.0 | 0.00 | 0.00 | 0.00 | 94 | 1011.6 |
| 20260905115027 | 63 | 124 | 0.0 | 0.0 | 0.00 | 0.00 | 0.00 | 93 | 1011.4 |
| 20260905113538 | 63 | 124 | 0.0 | 0.0 | 0.00 | 0.00 | 0.00 | 92 | 1011.4 |
| 20260905112027 | 63 | 124 | 0.0 | 0.0 | 0.00 | 0.00 | 0.00 | 91 | 1011.3 |
| 20260905110536 | 63 | 124 | 0.0 | 0.0 | 0.00 | 0.00 | 0.00 | 90 | 1011.2 |
| 20260905105034 | 64 | 124 | 0.0 | 0.0 | 0.00 | 0.00 | 0.00 | 90 | 1010.8 |
| 20260905103543 | 64 | 124 | 0.0 | 0.0 | 0.00 | 0.00 | 0.00 | 89 | 1010.7 |
| 20260905102052 | 65 | 124 | 0.0 | 0.0 | 0.00 | 0.00 | 0.00 | 89 | 1010.5 |
| 20260905100537 | 66 | 124 | 0.0 | 0.0 | 0.00 | 0.00 | 0.00 | 88 | 1010.3 |
| 20260905095039 | 66 | 124 | 0.0 | 1.0 | 0.00 | 0.00 | 0.00 | 88 | 1010.2 |
| 20260905093548 | 67 | 116 | 1.0 | 3.0 | 0.00 | 0.00 | 0.00 | 88 | 1010.1 |
| 20260905092054 | 67 | 126 | 0.0 | 0.0 | 0.00 | 0.00 | 0.00 | 88 | 1010.1 |
| 20260905090541 | 67 | 77 | 0.0 | 0.0 | 0.00 | 0.00 | 0.00 | 90 | 1010.1 |
| 20260905085105 | 67 | 77 | 0.0 | 1.0 | 0.00 | 0.00 | 0.00 | 89 | 1010.0 |
| 20260905083554 | 67 | 27 | 0.0 | 0.0 | 0.00 | 0.00 | 0.00 | 91 | 1009.9 |
| 20260905082044 | 67 | 27 | 0.0 | 2.0 | 0.00 | 0.00 | 0.00 | 92 | 1010.1 |
| 20260905080551 | 67 | 117 | 0.0 | 1.0 | 0.00 | 0.00 | 0.00 | 92 | 1010.4 |
| 20260905075034 | 68 | 117 | 0.0 | 0.0 | 0.00 | 0.00 | 0.00 | 93 | 1010.2 |
| 20260905073543 | 68 | 117 | 0.0 | 0.0 | 0.00 | 0.00 | 0.00 | 94 | 1010.1 |
| 20260905072033 | 68 | 117 | 0.0 | 0.0 | 0.00 | 0.00 | 0.00 | 94 | 1010.2 |
| 20260905070539 | 68 | 117 | 0.0 | 0.0 | 0.00 | 0.00 | 0.00 | 94 | 1010.4 |
| 20260905065041 | 68 | 117 | 0.0 | 0.0 | 0.00 | 0.00 | 0.00 | 94 | 1010.4 |
| 20260905063530 | 68 | 117 | 0.0 | 0.0 | 0.00 | 0.00 | 0.00 | 94 | 1010.5 |
| 20260905062039 | 68 | 117 | 0.0 | 0.0 | 0.00 | 0.00 | 0.00 | 94 | 1010.6 |
| 20260905060548 | 68 | 117 | 0.0 | 0.0 | 0.00 | 0.00 | 0.00 | 94 | 1010.7 |
| 20260905055030 | 68 | 117 | 0.0 | 0.0 | 0.00 | 0.01 | 0.00 | 94 | 1010.8 |
| 20260905053538 | 68 | 117 | 0.0 | 0.0 | 0.00 | 0.01 | 0.00 | 94 | 1010.9 |
| 20260905052028 | 68 | 117 | 0.0 | 0.0 | 0.00 | 0.01 | 0.00 | 94 | 1011.0 |
| 20260905050606 | 68 | 117 | 0.0 | 0.0 | 0.00 | 0.01 | 0.00 | 94 | 1011.1 |
| 20260905045028 | 68 | 117 | 0.0 | 0.0 | 0.00 | 0.02 | 0.00 | 94 | 1011.2 |
| 20260905043537 | 68 | 117 | 0.0 | 0.0 | 0.00 | 0.02 | 0.00 | 94 | 1011.2 |
| 20260905042044 | 68 | 117 | 0.0 | 0.0 | 0.00 | 0.02 | 0.00 | 94 | 1011.2 |
| 20260905040552 | 68 | 117 | 0.0 | 0.0 | 0.00 | 0.02 | 0.00 | 94 | 1011.2 |
| 20260905035043 | 68 | 117 | 0.0 | 0.0 | 0.00 | 0.02 | 0.02 | 94 | 1011.1 |
| 20260905033531 | 68 | 117 | 0.0 | 0.0 | 0.00 | 0.02 | 0.02 | 94 | 1011.3 |
| 20260905032041 | 68 | 117 | 0.0 | 0.0 | 0.00 | 0.02 | 0.02 | 93 | 1011.2 |
| 20260905030533 | 68 | 117 | 0.0 | 0.0 | 0.00 | 0.02 | 0.02 | 93 | 1011.3 |
| 20260905025054 | 69 | 117 | 0.0 | 0.0 | 0.00 | 0.03 | 0.02 | 93 | 1011.2 |
| 20260905023544 | 69 | 117 | 0.0 | 0.0 | 0.00 | 0.03 | 0.02 | 93 | 1011.3 |
| 20260905022034 | 69 | 117 | 0.0 | 0.0 | 0.00 | 0.03 | 0.02 | 92 | 1011.3 |
| 20260905020542 | 69 | 117 | 0.0 | 0.0 | 0.00 | 0.03 | 0.02 | 92 | 1011.1 |
| 20260905015038 | 69 | 117 | 0.0 | 0.0 | 0.00 | 0.06 | 0.02 | 92 | 1011.2 |
| 20260905013530 | 69 | 117 | 0.0 | 0.0 | 0.00 | 0.06 | 0.02 | 92 | 1011.2 |
| 20260905012035 | 70 | 117 | 0.0 | 0.0 | 0.00 | 0.06 | 0.02 | 91 | 1011.2 |
| 20260905010544 | 70 | 117 | 0.0 | 0.0 | 0.00 | 0.06 | 0.02 | 91 | 1011.3 |
| 20260905005104 | 70 | 117 | 0.0 | 0.0 | 0.00 | 0.06 | 0.02 | 91 | 1011.1 |
| 20260905003525 | 70 | 117 | 0.0 | 0.0 | 0.00 | 0.06 | 0.02 | 90 | 1011.0 |
| 20260905002135 | 71 | 117 | 0.0 | 0.0 | 0.00 | 0.06 | 0.02 | 90 | 1010.8 |
| 20260905000541 | 71 | 117 | 0.0 | 0.0 | 0.00 | 0.06 | 0.02 | 88 | 1010.7 |
| 20260904235026 | 71 | 117 | 0.0 | 0.0 | 0.00 | 0.06 | 0.02 | 87 | 1010.7 |
| 20260904233530 | 72 | 117 | 0.0 | 0.0 | 0.00 | 0.06 | 0.02 | 86 | 1010.7 |
| 20260904232039 | 73 | 117 | 0.0 | 0.0 | 0.00 | 0.06 | 0.02 | 85 | 1010.6 |
| 20260904230527 | 74 | 117 | 0.0 | 0.0 | 0.00 | 0.06 | 0.02 | 83 | 1010.4 |
| 20260904225033 | 75 | 117 | 0.0 | 0.0 | 0.00 | 0.06 | 0.02 | 82 | 1010.4 |
| 20260904223540 | 75 | 117 | 0.0 | 0.0 | 0.00 | 0.06 | 0.02 | 83 | 1010.6 |
| 20260904222029 | 76 | 117 | 0.0 | 0.0 | 0.00 | 0.06 | 0.02 | 81 | 1010.8 |
| 20260904220607 | 76 | 117 | 0.0 | 0.0 | 0.00 | 0.06 | 0.02 | 81 | 1010.9 |
| 20260904215052 | 77 | 117 | 0.0 | 0.0 | 0.00 | 0.06 | 0.02 | 81 | 1010.9 |
| 20260904213538 | 77 | 117 | 0.0 | 2.0 | 0.00 | 0.06 | 0.02 | 80 | 1010.8 |
| 20260904212028 | 78 | 159 | 0.0 | 0.0 | 0.00 | 0.06 | 0.02 | 78 | 1010.5 |
| 20260904210538 | 79 | 159 | 0.0 | 0.0 | 0.00 | 0.06 | 0.02 | 75 | 1010.3 |
| 20260904205044 | 80 | 159 | 0.0 | 1.0 | 0.00 | 0.06 | 0.02 | 69 | 1010.3 |
| 20260904203533 | 81 | 159 | 1.0 | 4.0 | 0.00 | 0.06 | 0.02 | 66 | 1010.4 |
| 20260904202026 | 81 | 133 | 0.0 | 2.0 | 0.00 | 0.06 | 0.02 | 68 | 1010.6 |
| 20260904200537 | 81 | 169 | 2.0 | 4.0 | 0.00 | 0.06 | 0.02 | 66 | 1010.8 |
| 20260904195038 | 81 | 159 | 2.0 | 5.0 | 0.00 | 0.06 | 0.02 | 66 | 1010.8 |
| 20260904193526 | 81 | 139 | 1.0 | 3.0 | 0.00 | 0.06 | 0.02 | 67 | 1011.0 |
| 20260904192034 | 81 | 133 | 1.0 | 3.0 | 0.00 | 0.06 | 0.02 | 66 | 1011.3 |
| 20260904190541 | 82 | 333 | 1.0 | 3.0 | 0.00 | 0.06 | 0.02 | 66 | 1011.3 |
| 20260904185043 | 82 | 61 | 1.0 | 6.0 | 0.00 | 0.06 | 0.02 | 67 | 1011.4 |
| 20260904183528 | 82 | 180 | 2.0 | 6.0 | 0.00 | 0.06 | 0.02 | 65 | 1011.5 |
| 20260904182038 | 82 | 116 | 3.0 | 6.0 | 0.00 | 0.06 | 0.02 | 65 | 1011.5 |
| 20260904180549 | 83 | 135 | 1.0 | 5.0 | 0.00 | 0.06 | 0.02 | 64 | 1011.8 |
| 20260904175036 | 84 | 121 | 2.0 | 6.0 | 0.00 | 0.06 | 0.02 | 62 | 1011.7 |
| 20260904173527 | 83 | 319 | 3.0 | 6.0 | 0.00 | 0.06 | 0.02 | 66 | 1011.6 |
| 20260904172037 | 83 | 42 | 1.0 | 5.0 | 0.00 | 0.06 | 0.02 | 68 | 1011.6 |
| 20260904170548 | 83 | 335 | 1.0 | 5.0 | 0.00 | 0.06 | 0.02 | 70 | 1011.6 |
| 20260904165109 | 83 | 149 | 0.0 | 6.0 | 0.00 | 0.06 | 0.02 | 70 | 1011.7 |